TimeCST,TemperatureF,Dew PointF,Humidity,Sea Level PressureIn,VisibilityMPH,Wind Direction,Wind SpeedMPH,Gust SpeedMPH,PrecipitationIn,Events,Conditions,WindDirDegrees,DateUTC
12:15 AM,33.8,32.0,93,29.48,10.0,North,15.0,-,N/A,,Overcast,350,2013-01-30 06:15:00
12:35 AM,33.8,32.0,93,29.46,10.0,North,13.8,-,N/A,,Overcast,360,2013-01-30 06:35:00
12:55 AM,33.8,32.0,93,29.44,10.0,NNE,17.3,-,N/A,,Overcast,20,2013-01-30 06:55:00
1:15 AM,33.8,32.0,93,29.43,10.0,North,16.1,-,N/A,,Overcast,10,2013-01-30 07:15:00
1:35 AM,33.8,32.0,93,29.45,10.0,North,13.8,21.9,N/A,,Overcast,360,2013-01-30 07:35:00
1:55 AM,33.8,32.0,93,29.46,10.0,North,13.8,17.3,N/A,,Overcast,350,2013-01-30 07:55:00
2:15 AM,32.0,32.0,100,29.47,7.0,North,11.5,-,N/A,,Overcast,350,2013-01-30 08:15:00
2:35 AM,32.0,32.0,100,29.47,7.0,North,13.8,-,N/A,,Overcast,360,2013-01-30 08:35:00
2:55 AM,32.0,32.0,100,29.46,3.0,North,11.5,-,N/A,,Overcast,10,2013-01-30 08:55:00
3:35 AM,32.0,32.0,100,29.45,4.0,North,10.4,-,0.01,,Overcast,10,2013-01-30 09:35:00
3:55 AM,32.0,32.0,100,29.44,1.5,North,13.8,-,0.01,,Overcast,10,2013-01-30 09:55:00
4:15 AM,32.0,32.0,100,29.41,1.5,North,13.8,-,N/A,,Mostly Cloudy,10,2013-01-30 10:15:00
4:35 AM,32.0,32.0,100,29.41,2.0,North,12.7,-,N/A,,Overcast,360,2013-01-30 10:35:00
4:55 AM,32.0,32.0,100,29.38,1.8,North,13.8,-,0.01,,Overcast,360,2013-01-30 10:55:00
5:15 AM,32.0,32.0,100,29.38,1.8,North,15.0,19.6,N/A,,Overcast,10,2013-01-30 11:15:00
5:35 AM,32.0,30.2,93,29.36,4.0,North,16.1,20.7,N/A,,Overcast,10,2013-01-30 11:35:00
6:15 AM,32.0,30.2,93,29.35,1.8,NNE,12.7,-,N/A,,Overcast,20,2013-01-30 12:15:00
6:35 AM,32.0,30.2,93,29.38,1.5,North,10.4,-,N/A,,Overcast,360,2013-01-30 12:35:00
6:55 AM,32.0,30.2,93,29.36,2.0,North,15.0,-,N/A,,Overcast,360,2013-01-30 12:55:00
7:15 AM,32.0,30.2,93,29.37,0.8,North,16.1,-,0.01,,Overcast,350,2013-01-30 13:15:00
7:35 AM,32.0,30.2,93,29.35,0.8,North,24.2,-,0.01,,Overcast,360,2013-01-30 13:35:00
7:55 AM,32.0,30.2,93,29.38,0.5,NNW,18.4,24.2,0.01,,Overcast,340,2013-01-30 13:55:00
8:15 AM,30.2,28.4,93,29.38,0.5,NNW,20.7,26.5,0.01,,Overcast,340,2013-01-30 14:15:00
8:35 AM,30.2,28.4,93,29.41,0.5,NW,17.3,23.0,0.01,,Overcast,320,2013-01-30 14:35:00
8:55 AM,30.2,26.6,86,29.39,0.2,NNW,19.6,26.5,0.01,,Overcast,340,2013-01-30 14:55:00
9:15 AM,28.4,26.6,93,29.39,0.2,NNW,20.7,24.2,N/A,,Overcast,340,2013-01-30 15:15:00
9:35 AM,28.4,26.6,93,29.38,0.5,NNW,16.1,21.9,N/A,,Overcast,330,2013-01-30 15:35:00
9:55 AM,28.4,26.6,93,29.38,0.5,NNW,19.6,27.6,N/A,,Overcast,340,2013-01-30 15:55:00
10:15 AM,28.4,26.6,93,29.37,1.0,NNW,20.7,27.6,N/A,,Overcast,340,2013-01-30 16:15:00
10:35 AM,28.4,26.6,93,29.37,2.5,North,20.7,26.5,N/A,,Overcast,350,2013-01-30 16:35:00
10:55 AM,30.2,26.6,86,29.37,4.0,NNW,23.0,28.8,N/A,,Overcast,340,2013-01-30 16:55:00
11:15 AM,30.2,26.6,86,29.38,3.0,NNW,20.7,24.2,N/A,,Overcast,340,2013-01-30 17:15:00
11:35 AM,28.4,26.6,93,29.38,1.2,NNW,20.7,26.5,N/A,,Overcast,340,2013-01-30 17:35:00
11:55 AM,28.4,26.6,93,29.38,1.0,NNW,16.1,-,N/A,,Overcast,330,2013-01-30 17:55:00
12:15 PM,28.4,26.6,93,29.37,1.0,NW,19.6,23.0,N/A,,Overcast,320,2013-01-30 18:15:00
12:35 PM,28.4,24.8,86,29.37,1.2,NW,23.0,26.5,N/A,,Overcast,320,2013-01-30 18:35:00
12:55 PM,28.4,23.0,80,29.38,2.0,NW,20.7,27.6,N/A,,Overcast,310,2013-01-30 18:55:00
1:15 PM,28.4,23.0,80,29.39,2.5,NW,18.4,24.2,N/A,,Overcast,310,2013-01-30 19:15:00
1:35 PM,26.6,21.2,80,29.39,3.0,NW,20.7,26.5,N/A,,Overcast,320,2013-01-30 19:35:00
1:55 PM,26.6,21.2,80,29.40,4.0,NW,24.2,-,N/A,,Overcast,310,2013-01-30 19:55:00
2:15 PM,26.6,21.2,80,29.41,2.5,NW,17.3,24.2,N/A,,Overcast,310,2013-01-30 20:15:00
2:35 PM,26.6,21.2,80,29.43,4.0,NW,20.7,-,N/A,,Overcast,310,2013-01-30 20:35:00
2:55 PM,26.6,19.4,74,29.44,2.5,NW,24.2,28.8,N/A,,Overcast,310,2013-01-30 20:55:00
3:15 PM,24.8,21.2,86,29.44,1.2,NW,17.3,26.5,N/A,,Overcast,320,2013-01-30 21:15:00
3:35 PM,24.8,21.2,86,29.46,1.2,WNW,18.4,21.9,N/A,,Overcast,300,2013-01-30 21:35:00
3:55 PM,23.0,19.4,86,29.47,4.0,NW,19.6,24.2,N/A,,Overcast,310,2013-01-30 21:55:00
4:15 PM,23.0,19.4,86,29.47,5.0,WNW,18.4,-,N/A,,Overcast,300,2013-01-30 22:15:00
4:35 PM,23.0,19.4,86,29.49,7.0,WNW,17.3,21.9,N/A,,Overcast,300,2013-01-30 22:35:00
4:55 PM,23.0,17.6,80,29.50,4.0,WNW,12.7,24.2,N/A,,Overcast,290,2013-01-30 22:55:00
5:15 PM,21.2,17.6,86,29.51,7.0,WNW,16.1,25.3,N/A,,Overcast,290,2013-01-30 23:15:00
5:35 PM,21.2,15.8,80,29.52,5.0,WNW,18.4,25.3,N/A,,Overcast,300,2013-01-30 23:35:00
5:55 PM,19.4,14.0,80,29.54,7.0,WNW,16.1,-,N/A,,Overcast,290,2013-01-30 23:55:00
6:15 PM,19.4,14.0,80,29.55,10.0,WNW,15.0,24.2,N/A,,Overcast,290,2013-01-31 00:15:00
6:35 PM,19.4,14.0,80,29.56,10.0,WNW,17.3,21.9,N/A,,Overcast,300,2013-01-31 00:35:00
6:55 PM,19.4,14.0,80,29.57,10.0,WNW,12.7,-,N/A,,Overcast,290,2013-01-31 00:55:00
7:15 PM,19.4,12.2,74,29.57,10.0,WNW,16.1,20.7,N/A,,Overcast,290,2013-01-31 01:15:00
7:35 PM,19.4,12.2,74,29.58,10.0,WNW,16.1,21.9,N/A,,Overcast,290,2013-01-31 01:35:00
7:55 PM,19.4,12.2,74,29.58,7.0,WNW,17.3,-,N/A,,Overcast,290,2013-01-31 01:55:00
8:15 PM,17.6,10.4,73,29.60,5.0,WNW,16.1,23.0,N/A,,Overcast,290,2013-01-31 02:15:00
8:35 PM,17.6,10.4,73,29.61,7.0,WNW,17.3,24.2,N/A,,Overcast,290,2013-01-31 02:35:00
8:55 PM,17.6,10.4,73,29.62,10.0,WNW,16.1,21.9,N/A,,Overcast,290,2013-01-31 02:55:00
9:15 PM,17.6,10.4,73,29.63,10.0,West,15.0,19.6,N/A,,Overcast,280,2013-01-31 03:15:00
9:35 PM,17.6,10.4,73,29.63,10.0,West,17.3,20.7,N/A,,Overcast,280,2013-01-31 03:35:00
9:55 PM,15.8,10.4,79,29.64,10.0,WNW,12.7,19.6,N/A,,Overcast,290,2013-01-31 03:55:00
10:15 PM,15.8,8.6,73,29.64,10.0,WNW,13.8,20.7,N/A,,Overcast,290,2013-01-31 04:15:00
10:35 PM,15.8,8.6,73,29.65,10.0,WNW,12.7,19.6,N/A,,Overcast,290,2013-01-31 04:35:00
10:55 PM,15.8,8.6,73,29.65,10.0,West,15.0,19.6,N/A,,Overcast,280,2013-01-31 04:55:00
11:15 PM,15.8,8.6,73,29.66,10.0,WNW,12.7,18.4,N/A,,Overcast,290,2013-01-31 05:15:00
11:35 PM,15.8,10.4,79,29.67,10.0,WNW,10.4,-,N/A,,Overcast,290,2013-01-31 05:35:00
11:55 PM,15.8,10.4,79,29.67,10.0,West,13.8,-,N/A,,Overcast,270,2013-01-31 05:55:00